INMARSAT 5-F1

Last updated on Sat Jul 05 2025 00:02:45 GMT+0000 (Coordinated Universal Time)

1 39476U 13073A 25185.00670730 .00000040 00000+0 00000+0 0 9999 2 39476 0.0185 46.8266 0000416 318.6094 341.8471 1.00272428 42098
UTC large
Height (km)
Speed (km/s)
/
Latitude / Longitude
Inclination (degrees)
Orbital Period (minutes)
Azimuth
Elevation
Range (km)
Doppler Factor

Next 0 passes for location: London (51.5072 / 0.1276)

Sorry there are no passes over London.